Somerville, NJ

4:04 AM EST on November 20, 2019 (GMT -0500)
Somerset

Weather History for KSMQ - September, 2019

Change the Weather History Date:

Tuesday, September 24, 2019

  Actual Average Record
Temperature  
Mean Temperature 66 °F -  
Max Temperature 78 °F 70 °F 93 °F (1970)
Min Temperature 54 °F 48 °F 32 °F (1963)
Growing Degree Days 16 (Base 50)    
Moisture  
Dew Point 54 °F    
Average Humidity 73    
Maximum Humidity 97    
Minimum Humidity 36    
Precipitation  
Precipitation 0.00 in - - ()
Sea Level Pressure  
Sea Level Pressure 29.81 in    
Wind  
Wind Speed 4 mph (NW)    
Max Wind Speed 15 mph    
Max Gust Speed 22 mph    
Visibility 9 miles    
Events      
Averages and records for this station are not official NWS values.
T = Trace of Precipitation, MM = Missing Value Source: NWS Daily Summary

Daily Weather History Graph

Daily Weather History Graph

Search for Another Location

Airport or City:

Astronomy

Sep. 24, 2019 Rise Set
Actual Time 6:47 AM EDT 6:52 PM EDT
Civil Twilight 6:20 AM EDT 7:20 PM EDT
Nautical Twilight 5:48 AM EDT 7:51 PM EDT
Astronomical Twilight 5:16 AM EDT 8:24 PM EDT
Moon 1:28 AM EDT (9/24) 4:38 PM EDT (9/24)
Length of Visible Light 12h 59m
Length of Day
12h 04m
Waning Crescent, 23% of the Moon is Illuminated
Sep 24
Waning Crescent
Sep 28
New
Oct 5
First Quarter
Oct 13
Full
Oct 21
Last Quarter

Hourly Weather History & Observations

Time (EDT) Temp. Dew Point Humidity Pressure Visibility Wind Dir Wind Speed Gust Speed Precip Events Conditions
12:53 AM 70.0 °F 61.0 °F 73% 29.76 in 10.0 mi NW 5.8 mph - N/A   Scattered Clouds
1:53 AM 64.9 °F 62.1 °F 90% 29.77 in 10.0 mi Calm Calm - N/A   Clear
2:53 AM 63.0 °F 60.1 °F 90% 29.76 in 10.0 mi Calm Calm - N/A   Clear
3:53 AM 62.1 °F 59.0 °F 90% 29.76 in 10.0 mi NW 4.6 mph - N/A   Clear
4:53 AM 59.0 °F 57.0 °F 93% 29.77 in 10.0 mi Calm Calm - N/A   Clear
5:40 AM 57.0 °F 55.9 °F 96% 29.78 in 2.5 mi Calm Calm - N/A   Clear
5:53 AM 57.9 °F 55.9 °F 93% 29.79 in 10.0 mi Calm Calm - N/A   Clear
6:35 AM 57.0 °F 55.9 °F 96% 29.80 in 2.5 mi Calm Calm - N/A   Clear
6:43 AM 57.0 °F 55.0 °F 93% 29.80 in 8.0 mi Calm Calm - N/A   Clear
6:53 AM 55.9 °F 55.0 °F 97% 29.80 in 8.0 mi Calm Calm - N/A   Clear
7:53 AM 59.0 °F 57.0 °F 93% 29.81 in 10.0 mi Calm Calm - N/A   Clear
8:53 AM 66.0 °F 59.0 °F 78% 29.81 in 10.0 mi Calm Calm - N/A   Partly Cloudy
9:53 AM 70.0 °F 57.0 °F 63% 29.83 in 10.0 mi NW 10.4 mph - N/A   Mostly Cloudy
10:53 AM 70.0 °F 54.0 °F 57% 29.83 in 10.0 mi NW 6.9 mph - N/A   Mostly Cloudy
11:53 AM 73.0 °F 53.1 °F 49% 29.82 in 10.0 mi NNW 9.2 mph - N/A   Mostly Cloudy
12:53 PM 73.9 °F 52.0 °F 46% 29.81 in 10.0 mi NW 13.8 mph - N/A   Scattered Clouds
1:53 PM 75.9 °F 51.1 °F 42% 29.79 in 10.0 mi NW 15.0 mph 21.9 mph N/A   Scattered Clouds
2:53 PM 77.0 °F 51.1 °F 40% 29.78 in 10.0 mi NNW 10.4 mph 19.6 mph N/A   Clear
3:53 PM 75.0 °F 50.0 °F 41% 29.78 in 10.0 mi WNW 9.2 mph - N/A   Partly Cloudy
4:53 PM 75.9 °F 46.9 °F 36% 29.78 in 10.0 mi NW 11.5 mph 18.4 mph N/A   Clear
5:53 PM 73.9 °F 48.0 °F 40% 29.80 in 10.0 mi NW 9.2 mph - N/A   Clear
6:53 PM 69.1 °F 48.9 °F 49% 29.82 in 10.0 mi Calm Calm - N/A   Clear
7:53 PM 61.0 °F 53.1 °F 75% 29.85 in 10.0 mi Calm Calm - N/A   Scattered Clouds
8:53 PM 59.0 °F 53.1 °F 81% 29.86 in 10.0 mi Calm Calm - N/A   Clear
9:53 PM 55.0 °F 52.0 °F 89% 29.88 in 10.0 mi Calm Calm - N/A   Clear
10:53 PM 54.0 °F 52.0 °F 93% 29.88 in 10.0 mi Calm Calm - N/A   Clear
11:53 PM 54.0 °F 52.0 °F 93% 29.89 in 10.0 mi Calm Calm - N/A   Partly Cloudy